K5TCS Weather Reports


Display with metric or nautical units.
time (UTC)temp
F
wind
direction
speed
MPH
gust
MPH
rain 1hr
in
rain 24hr
in
rain mn
in
humidity
%
barometer
mb
20260508000017 69 203 6.0 16.0 0.00 0.00 0.00 24 1019.1
20260507235016 70 203 5.0 12.0 0.00 0.00 0.00 22 1019.5
20260507234016 69 68 5.0 13.0 0.00 0.00 0.00 25 1018.8
20260507233036 68 90 3.0 7.0 0.00 0.00 0.00 30 1018.4
20260507232016 69 113 3.0 10.0 0.00 0.00 0.00 32 1019.1
20260507231016 69 45 3.0 12.0 0.00 0.00 0.00 32 1018.9
20260507230037 70 45 3.0 12.0 0.00 0.00 0.00 33 1019.3
20260507225016 70 113 2.0 7.0 0.00 0.00 0.00 30 1019.7
20260507224016 72 270 3.0 11.0 0.00 0.00 0.00 22 1020.1
20260507223016 71 315 3.0 6.0 0.00 0.00 0.00 23 1019.8
20260507222016 70 113 3.0 10.0 0.00 0.00 0.00 28 1019.5
20260507221017 69 113 2.0 11.0 0.00 0.00 0.00 34 1019.9
20260507220036 69 113 5.0 12.0 0.00 0.00 0.00 34 1020.2
20260507215016 70 135 3.0 7.0 0.00 0.00 0.00 34 1020.4
20260507214017 68 113 3.0 14.0 0.00 0.00 0.00 33 1020.5
20260507213016 67 0 4.0 13.0 0.00 0.00 0.00 37 1020.5
20260507212016 68 68 4.0 16.0 0.00 0.00 0.00 36 1020.9
20260507211016 68 68 6.0 17.0 0.00 0.00 0.00 37 1020.7
20260507210016 68 68 5.0 15.0 0.00 0.00 0.00 34 1020.5
20260507205016 67 45 5.0 15.0 0.00 0.00 0.00 38 1020.3
20260507204037 67 45 8.0 21.0 0.00 0.00 0.00 38 1021.9
20260507203016 68 45 6.0 17.0 0.00 0.00 0.00 37 1022.1
20260507202016 67 68 5.0 14.0 0.00 0.00 0.00 39 1022.2
20260507201016 68 90 4.0 14.0 0.00 0.00 0.00 37 1022.3
20260507200016 68 45 6.0 15.0 0.00 0.00 0.00 36 1022.4
20260507195016 67 68 5.0 14.0 0.00 0.00 0.00 37 1022.8
20260507194016 68 135 3.0 11.0 0.00 0.00 0.00 32 1023.6
20260507193016 68 113 3.0 7.0 0.00 0.00 0.00 33 1023.7
20260507192016 67 135 3.0 10.0 0.00 0.00 0.00 34 1023.3
20260507191016 66 113 4.0 13.0 0.00 0.00 0.00 33 1023.4
20260507190016 68 158 3.0 11.0 0.00 0.00 0.00 33 1024.2
20260507185016 67 135 3.0 10.0 0.00 0.00 0.00 33 1024.3
20260507184016 67 113 3.0 16.0 0.00 0.00 0.00 33 1024.5
20260507183016 65 113 5.0 14.0 0.00 0.00 0.00 38 1024.2
20260507182017 66 113 3.0 13.0 0.00 0.00 0.00 38 1024.8
20260507181016 64 90 4.0 9.0 0.00 0.00 0.00 38 1024.8
20260507180016 64 90 3.0 7.0 0.00 0.00 0.00 39 1025.0
20260507175016 64 113 2.0 13.0 0.00 0.00 0.00 35 1025.0
20260507174016 63 135 3.0 9.0 0.00 0.00 0.00 37 1024.6
20260507173016 63 135 3.0 10.0 0.00 0.00 0.00 38 1024.6
20260507172016 62 135 3.0 6.0 0.00 0.00 0.00 37 1024.5
20260507171016 62 135 2.0 7.0 0.00 0.00 0.00 40 1024.2
20260507170015 60 113 3.0 11.0 0.00 0.00 0.00 43 1023.8
20260507165015 60 90 2.0 5.0 0.00 0.00 0.00 44 1023.9
20260507164015 60 68 2.0 9.0 0.00 0.00 0.00 46 1024.4
20260507163018 60 68 2.0 9.0 0.00 0.00 0.00 45 1024.4
20260507162017 59 90 2.0 6.0 0.00 0.00 0.00 46 1024.7
20260507161038 60 90 1.0 5.0 0.00 0.00 0.00 44 1024.7
20260507160037 59 90 1.0 4.0 0.00 0.00 0.00 43 1025.0
20260507155017 58 45 1.0 4.0 0.00 0.00 0.00 43 1024.4
20260507154038 56 0.0 3.0 0.00 0.00 0.00 46 1024.9
20260507153017 54 0.0 3.0 0.00 0.00 0.00 48 1024.5
20260507152017 54 0.0 4.0 0.00 0.00 0.00 49 1024.8
20260507151017 54 0.0 3.0 0.00 0.00 0.00 49 1025.7
20260507150017 52 0.0 1.0 0.00 0.00 0.00 50 1025.3
20260507145017 50 0.0 2.0 0.00 0.00 0.00 52 1024.9
20260507144017 50 0.0 4.0 0.00 0.00 0.00 53 1025.6
20260507143017 49 90 1.0 5.0 0.00 0.00 0.00 53 1025.5
20260507142017 48 0.0 2.0 0.00 0.00 0.00 54 1025.3
20260507141017 47 68 1.0 4.0 0.00 0.00 0.00 53 1025.9
20260507140017 47 45 1.0 5.0 0.00 0.00 0.00 51 1025.7
20260507135037 47 0.0 3.0 0.00 0.00 0.00 50 1025.8
20260507134017 46 0.0 4.0 0.00 0.00 0.00 52 1026.7
20260507133017 43 0.0 0.0 0.00 0.00 0.00 56 1025.6
20260507132017 42 0.0 0.0 0.00 0.00 0.00 56 1025.5
20260507131017 40 0.0 0.0 0.00 0.00 0.00 57 1025.1
20260507130017 38 0.0 0.0 0.00 0.00 0.00 57 1024.5
20260507125057 36 0.0 0.0 0.00 0.00 0.00 58 1023.9
20260507124017 35 0.0 2.0 0.00 0.00 0.00 59 1023.8
20260507123017 35 293 1.0 5.0 0.00 0.00 0.00 59 1023.7
20260507122017 32 270 1.0 4.0 0.00 0.00 0.00 61 1023.0
20260507121017 33 0.0 1.0 0.00 0.00 0.00 61 1023.4
20260507120017 34 0.0 4.0 0.00 0.00 0.00 60 1023.4
20260507115017 34 0.0 3.0 0.00 0.00 0.00 60 1023.3
20260507114017 35 315 2.0 5.0 0.00 0.00 0.00 60 1024.4
20260507113017 31 0.0 3.0 0.00 0.00 0.00 62 1023.5
20260507112017 31 0.0 2.0 0.00 0.00 0.00 62 1023.5
20260507111057 31 0.0 3.0 0.00 0.00 0.00 62 1023.0
20260507110017 32 0.0 3.0 0.00 0.00 0.00 62 1023.1
20260507105016 32 0.0 0.0 0.00 0.00 0.00 61 1023.4
20260507104036 34 0.0 1.0 0.00 0.00 0.00 60 1023.5
20260507103036 34 0.0 2.0 0.00 0.00 0.00 61 1023.4
20260507102016 33 0.0 0.0 0.00 0.00 0.00 60 1023.5
20260507101016 34 0.0 1.0 0.00 0.00 0.00 60 1024.5
20260507100017 34 0.0 0.0 0.00 0.00 0.00 58 1024.0
20260507095016 34 0.0 1.0 0.00 0.00 0.00 60 1024.0
20260507094016 34 0.0 1.0 0.00 0.00 0.00 58 1024.0
20260507093036 35 0.0 0.0 0.00 0.00 0.00 57 1023.9
20260507092016 36 0.0 0.0 0.00 0.00 0.00 56 1024.3
20260507091016 37 0.0 0.0 0.00 0.00 0.00 57 1023.7
20260507090016 36 0.0 0.0 0.00 0.00 0.00 58 1023.4
20260507085036 34 0.0 0.0 0.00 0.00 0.00 55 1022.9
20260507084016 35 0.0 2.0 0.00 0.00 0.00 54 1022.7
20260507083016 39 0.0 2.0 0.00 0.00 0.00 52 1023.7
20260507082016 39 0.0 2.0 0.00 0.00 0.00 52 1023.7
20260507081056 39 0.0 1.0 0.00 0.00 0.00 54 1023.8
20260507080016 39 0.0 1.0 0.00 0.00 0.00 58 1023.8
20260507075016 39 0.0 0.0 0.00 0.00 0.00 57 1023.8
20260507074016 40 0.0 0.0 0.00 0.00 0.00 59 1024.5
20260507073016 40 0.0 1.0 0.00 0.00 0.00 59 1024.5
20260507072036 40 0.0 2.0 0.00 0.00 0.00 60 1024.3
20260507071016 40 0.0 1.0 0.00 0.00 0.00 57 1023.7
20260507070016 41 0.0 0.0 0.00 0.00 0.00 55 1023.9
20260507065016 41 0.0 1.0 0.00 0.00 0.00 54 1023.8
20260507064016 42 0.0 4.0 0.00 0.00 0.00 52 1023.8
20260507063016 43 68 3.0 9.0 0.00 0.00 0.00 50 1023.8
20260507062016 44 45 2.0 7.0 0.00 0.00 0.00 43 1023.7
20260507061016 44 270 2.0 6.0 0.00 0.00 0.00 37 1023.8
20260507060016 42 270 2.0 6.0 0.00 0.00 0.00 41 1023.3
20260507055016 45 270 2.0 5.0 0.00 0.00 0.00 38 1023.6
20260507054015 47 270 3.0 7.0 0.00 0.00 0.00 35 1023.3
20260507053018 45 270 3.0 9.0 0.00 0.00 0.00 37 1022.8
20260507052018 43 270 3.0 7.0 0.00 0.00 0.00 41 1022.3
20260507051058 42 270 2.0 6.0 0.00 0.00 0.00 45 1021.8
20260507050017 42 270 1.0 5.0 0.00 0.00 0.00 45 1021.9
20260507045017 41 248 1.0 5.0 0.00 0.00 0.00 46 1021.6
20260507044017 42 270 1.0 5.0 0.00 0.00 0.00 45 1021.6
20260507043037 43 270 1.0 5.0 0.00 0.00 0.00 44 1021.2
20260507042017 43 270 1.0 4.0 0.00 0.00 0.00 43 1021.2
20260507041017 43 270 1.0 4.0 0.00 0.00 0.00 44 1020.5
20260507040017 43 248 2.0 5.0 0.00 0.00 0.00 45 1020.3
20260507035037 44 0.0 2.0 0.00 0.00 0.00 43 1020.1
20260507034017 45 0.0 1.0 0.00 0.00 0.00 40 1020.5
20260507033037 46 0.0 1.0 0.00 0.00 0.00 38 1020.4
20260507032017 47 0.0 2.0 0.00 0.00 0.00 36 1020.7
20260507031017 50 0.0 2.0 0.00 0.00 0.00 34 1020.5
20260507030017 51 0.0 0.0 0.00 0.00 0.00 31 1020.8
20260507025017 51 0.0 0.0 0.00 0.00 0.00 31 1020.5
20260507024017 51 0.0 0.0 0.00 0.00 0.00 31 1019.8
20260507023037 52 0.0 2.0 0.00 0.00 0.00 31 1019.8
20260507022017 53 0.0 2.0 0.00 0.00 0.00 30 1020.0
20260507021017 54 0.0 1.0 0.00 0.00 0.00 30 1019.4
20260507020017 55 225 1.0 5.0 0.00 0.00 0.00 28 1019.5
20260507015017 56 225 1.0 5.0 0.00 0.00 0.00 28 1019.3
20260507014017 57 203 2.0 6.0 0.00 0.00 0.00 26 1018.9
20260507013017 59 225 3.0 9.0 0.00 0.00 0.00 26 1019.5
20260507012037 60 225 3.0 9.0 0.00 0.00 0.00 25 1019.3
20260507011017 60 225 3.0 14.0 0.00 0.00 0.00 26 1018.7
20260507010017 60 225 7.0 19.0 0.00 0.00 0.00 25 1018.5
20260507005017 61 203 7.0 14.0 0.00 0.00 0.00 24 1018.9
20260507004017 62 248 5.0 13.0 0.00 0.00 0.00 24 1019.0
20260507003017 62 248 7.0 16.0 0.00 0.00 0.00 24 1019.0
20260507002017 63 270 6.0 14.0 0.00 0.00 0.00 24 1019.0
20260507001017 63 248 8.0 18.0 0.00 0.00 0.00 24 1018.9